Вернуться в каталог

ARVAKER-3

АктивенНаукаSSO
NORAD 64566·PAYLOAD·🇳🇴 Norway

Запущен Jun 23, 2025 с Vandenberg Space Force Base

Loading…

Ближайшие Пролёты (ближайшие 24 часа)

TLE

СвежийSource: Space-Track

Эпоха: Sep 14, 2026, 14:01 UTC

1 64566U 25135AQ  26257.58435929  .00001585  00000-0  15436-3 0  9991
2 64566  97.7797  10.7634 0002323  44.6153 315.5254 14.93911102 67222

Отслеживайте ARVAKER-3 в реальном времени с AllMySat

Download on the App Store